Weather observations for the past three days for
Hunter U. S. Army Airfield
Imperial (Metric)
Date Time (edt) Wind (mph) Vis. (mi.) Weather Sky Cond. Temperature (ºF) Relative Humidity Wind Chill (°F) Heat Index (°F) Pressure Precipitation (in)
Air Dwpt 6 hour altimeter (in) sea level (mb) 1 hr 3 hr 6 hr
Max. Min.
24 10:55 S 8 10.00 Partly Cloudy FEW027 SCT250 87.8 74.5 65% 97 30.18 1022.3
24 09:55 SW 5 10.00 Mostly Cloudy BKN250 85.5 75.4 72% 95 30.17 1021.9
24 08:55 SW 7 10.00 Mostly Cloudy SCT150 BKN250 82.8 74.7 77% 90 30.17 1021.9
24 07:55 SW 6 10.00 Partly Cloudy SCT150 SCT250 80.1 73.9 82.8 79.5 82% 85 30.16 1021.6
24 06:55 S 6 10.00 Partly Cloudy SCT080 SCT140 80.1 73.9 82% 85 30.15 1021.3
24 05:55 SW 6 10.00 Partly Cloudy SCT060 SCT150 80.8 76.5 87% 87 30.13 1020.6
24 04:55 Calm 10.00 Mostly Cloudy FEW075 BKN150 81.5 76.8 86% 89 30.13 1020.6
24 03:55 Calm 10.00 Partly Cloudy SCT150 81.7 77 86% 89 30.13 1020.6
24 02:55 SW 3 10.00 A Few Clouds FEW150 82.2 77.2 85% 91 30.13 1020.6
24 01:55 S 6 10.00 Fair CLR 82.6 76.8 86 82.6 83% 91 30.13 1020.6
24 00:55 S 5 10.00 Fair CLR 83.7 76.5 79% 93 30.14 1020.9
23 23:55 S 9 10.00 A Few Clouds FEW015 84 77.5 81% 94 30.14 1020.9
23 22:55 S 6 10.00 Fair CLR 84 78.3 83% 95 30.13 1020.6
23 21:55 S 5 10.00 Partly Cloudy FEW090 SCT250 84 77.2 80% 94 30.11 1019.9
23 20:55 S 5 10.00 Partly Cloudy FEW090 SCT250 84.7 76.6 77% 95 30.09 1019.2
23 19:55 SE 7 10.00 Partly Cloudy FEW090 SCT250 86.2 76.8 92.1 86.2 74% 97 30.07 1018.5
23 18:55 SE 10 10.00 Partly Cloudy FEW030 SCT090 SCT250 88 75.6 67% 98 30.05 1017.9
23 17:55 SE 12 10.00 Partly Cloudy FEW030 SCT040 SCT250 89.4 77 67% 102 30.04 1017.5
23 16:55 SE 9 10.00 Mostly Cloudy SCT040 BKN060 90.7 77.7 66% 105 30.04 1017.5
23 15:55 SE 13 10.00 Mostly Cloudy BKN060 89.1 78.8 72% 104 30.06 1018.2
23 14:55 SE 7 10.00 Mostly Cloudy SCT040 BKN060 90.1 78.1 68% 105 30.07 1018.5
23 13:55 SE 9 10.00 Mostly Cloudy SCT034 SCT042 BKN190 90.9 76.8 91.4 79.2 64% 104 30.08 1018.9
23 12:55 Calm 10.00 Mostly Cloudy SCT041 BKN150 BKN180 90.5 76.6 64% 103 30.09 1019.2
23 11:55 SW 6 10.00 Partly Cloudy SCT032 88.5 76.1 67% 100 30.11 1019.9
23 10:55 Calm 10.00 A Few Clouds FEW021 86.7 75.2 69% 96 30.1 1019.6
23 09:55 SW 6 10.00 A Few Clouds FEW050 FEW250 84.9 77.5 79% 96 30.09 1019.2
23 08:55 SW 5 10.00 A Few Clouds FEW050 FEW250 82 78.1 88% 91 30.09 1019.2
23 07:55 Calm 10.00 Partly Cloudy SCT250 79 77 79 75.7 94% 83 30.08 1018.9
23 06:55 Calm 10.00 A Few Clouds FEW200 75.9 74.3 95% 75 30.07 1018.6
23 05:55 Calm 10.00 A Few Clouds FEW220 76.6 75 95% 77 30.06 1018.2
23 04:55 Calm 10.00 A Few Clouds FEW150 77 75.4 95% 78 30.04 1017.5
23 03:55 Calm 10.00 A Few Clouds FEW220 77 75.4 95% 78 30.03 1017.2
23 02:55 W 5 10.00 Partly Cloudy SCT200 77 75 94% 78 30.03 1017.2
23 01:55 Calm 10.00 Mostly Cloudy BKN180 77.9 75.9 79 75.9 94% 80 30.04 1017.5
23 00:55 Calm 10.00 Fair CLR 77.5 75.6 94% 79 30.04 1017.5
22 23:55 Calm 10.00 Fair CLR 77.7 75.4 93% 80 30.05 1017.9
22 22:55 W 3 10.00 A Few Clouds FEW050 78.1 75.6 92% 81 30.05 1017.9
22 21:55 NE 2 10.00 Mostly Cloudy SCT030 BKN220 77 75 94% 78 30.03 1017.2
22 20:55 Calm 10.00 Mostly Cloudy FEW060 BKN100 76.8 74.7 93% 78 30.02 1016.9
22 19:55 Calm 10.00 Mostly Cloudy FEW030 BKN250 77 73.8 91.4 74.7 90% 78 30 1016.2 0.07 0.22
22 18:55 SW 10 5.00 Light Rain FEW001 BKN025 75.4 71.8 89% 75 30 1016.2 0.15
22 17:55 W 12 2.75 Thunderstorm Heavy Rain Fog/Mist VV020 75.2 73 93% 74 30.01 1016.5 1.3
22 16:55 NE 14 1.63 Thunderstorm OVC025CB 77 73.4 89% 78 30.01 1016.5
22 15:55 E 9 10.00 Thunderstorm in Vicinity SCT030 BKN040CB BKN070 86.9 75 68% 96 29.99 1015.8
22 14:55 SE 10 10.00 Mostly Cloudy BKN030 BKN075 88.7 77.2 69% 101 30 1016.2
22 13:55 SE 5 10.00 Mostly Cloudy BKN035 89.2 75.9 91.4 78.8 65% 101 30.02 1016.9
22 12:55 W 6 10.00 Overcast BKN033 OVC042 88 75.6 67% 98 30.04 1017.5
22 11:55 W 5 10.00 Mostly Cloudy FEW025 SCT047 BKN190 88.2 75.7 67% 99 30.05 1017.9
22 10:55 Calm 10.00 Mostly Cloudy BKN030 85.6 75.9 73% 95 30.04 1017.5
22 09:55 Calm 10.00 Partly Cloudy FEW050 SCT150 84 75.9 77% 93 30.04 1017.5
22 08:55 SW 3 10.00 A Few Clouds FEW050 FEW150 81.1 75 82% 87 30.04 1017.5
22 07:55 Calm 10.00 Partly Cloudy SCT150 78.8 74.8 78.8 75.4 88% 82 30.03 1017.2
22 06:55 Calm 10.00 Partly Cloudy SCT150 76.1 74.1 94% 76 30.01 1016.5
22 05:55 Calm 10.00 Fair CLR 75.9 73.9 94% 75 30 1016.2
22 04:55 Calm 10.00 Fair CLR 77 74.1 91% 78 29.99 1015.8
22 03:55 S 3 10.00 Fair CLR 77.7 75.2 92% 80 29.99 1015.8
22 02:55 SW 3 10.00 Mostly Cloudy BKN070 78.1 75.7 93% 81 29.99 1015.8
22 01:55 SW 5 10.00 A Few Clouds FEW150 79 76.5 83.8 78.8 92% 83 30.02 1016.9
22 00:55 Calm 10.00 Mostly Cloudy SCT015 BKN150 79.3 77 93% 84 30.04 1017.5
21 23:55 Calm 10.00 A Few Clouds FEW170 79.2 76.8 93% 84 30.06 1018.2
21 22:55 W 3 10.00 Light Rain OVC033 79.7 77.4 93% 85 30.07 1018.6 0.14
21 21:55 Calm 10.00 Light Rain OVC007 80.4 77.5 91% 87 30.06 1018.2
21 20:55 SW 6 10.00 Light Rain SCT050 81.5 77.2 87% 89 30.04 1017.5
21 19:55 S 6 10.00 A Few Clouds FEW180 83.8 75.7 90.1 83.7 77% 92 30.02 1016.9
21 18:55 S 9 10.00 Fair CLR 84.4 74.7 73% 92 30 1016.2
21 17:55 SE 9 10.00 Fair CLR 88 73.8 63% 96 29.99 1015.8
21 16:55 SE 9 10.00 Mostly Cloudy SCT031 BKN040 89.8 73.9 60% 99 29.99 1015.8
21 15:55 E 6 10.00 A Few Clouds FEW210 88.2 75.7 67% 99 30 1016.2
21 14:55 Calm 10.00 Partly Cloudy SCT031 SCT200 87.8 74.5 65% 97 30.02 1016.9
21 13:55 W 5 10.00 A Few Clouds FEW150 FEW190 88 74.7 88 74.7 65% 97 30.04 1017.5
21 12:55 Calm 10.00 Mostly Cloudy SCT020 BKN150 85.5 74.1 69% 93 30.07 1018.6
21 11:55 Calm 10.00 Overcast OVC016 83.7 74.5 74% 91 30.07 1018.6
Date Time (edt) Wind (mph) Vis. (mi.) Weather Sky Cond. Air Dwpt Max. Min. Relative Humidity Wind Chill (°F) Heat Index (°F) altimeter (in) sea level (mb) 1 hr 3 hr 6 hr
6 hour
Temperature (ºF) Pressure Precipitation (in)